FW5236 Weather Reports


time (UTC)temp
C
wind
direction
speed
KPH
gust
KPH
rain 1hr
cm
rain 24hr
cm
rain mn
cm
humidity
%
barometer
mb
20260509220032 26 124 1.6 8.0 0.00 0.00 0.00 27 1020.6
20260509214532 27 128 1.6 6.4 0.00 0.00 0.00 27 1020.8
20260509211531 26 125 0.0 6.4 0.00 0.00 0.00 29 1021.3
20260509204528 26 87 0.0 4.8 0.00 0.00 0.00 33 1021.5
20260509203031 25 134 1.6 6.4 0.00 0.00 0.00 33 1021.7
20260509201530 25 95 1.6 9.7 0.00 0.00 0.00 34 1022.0
20260509200103 25 91 0.0 4.8 0.00 0.00 0.00 34 1022.2
20260509193031 24 153 0.0 8.0 0.00 0.00 0.00 36 1022.5
20260509191530 23 148 0.0 6.4 0.00 0.00 0.00 37 1022.9
20260509190107 23 129 0.0 4.8 0.00 0.00 0.00 38 1023.0
20260509184531 23 72 1.6 8.0 0.00 0.00 0.00 39 1023.1
20260509183031 22 79 0.0 4.8 0.00 0.00 0.00 41 1023.3
20260509181606 22 86 0.0 6.4 0.00 0.00 0.00 41 1023.3
20260509174616 21 97 0.0 4.8 0.00 0.00 0.00 43 1023.5
20260509173031 21 64 0.0 3.2 0.00 0.00 0.00 43 1023.6
20260509170029 20 90 0.0 4.8 0.00 0.00 0.00 46 1023.9
20260509164533 19 111 0.0 3.2 0.00 0.00 0.00 47 1024.0
20260509161530 18 112 0.0 3.2 0.00 0.00 0.00 51 1024.4
20260509160036 17 141 0.0 0.0 0.00 0.00 0.00 54 1024.3
20260509154607 15 173 0.0 1.6 0.00 0.00 0.00 60 1024.3
20260509151530 12 225 0.0 1.6 0.00 0.00 0.00 69 1024.4
20260509150152 10 225 0.0 3.2 0.00 0.00 0.00 73 1024.5
20260509144531 9 238 3.2 6.4 0.00 0.00 0.00 76 1024.4
20260509141532 7 240 3.2 8.0 0.00 0.00 0.00 81 1024.4
20260509140030 6 232 4.8 9.7 0.00 0.00 0.00 83 1024.3
20260509134531 6 236 3.2 6.4 0.00 0.00 0.00 85 1024.3
20260509133145 5 234 4.8 8.0 0.00 0.00 0.00 86 1024.1
20260509131603 5 232 3.2 8.0 0.00 0.00 0.00 86 1023.8
20260509130033 5 249 1.6 6.4 0.00 0.00 0.00 86 1023.6
20260509124603 5 225 0.0 1.6 0.00 0.00 0.00 85 1023.6
20260509123031 5 230 1.6 6.4 0.00 0.00 0.00 84 1023.7
20260509121531 5 240 3.2 6.4 0.00 0.00 0.00 83 1023.7
20260509120030 6 238 3.2 6.4 0.00 0.00 0.00 82 1023.7
20260509114646 6 250 1.6 4.8 0.00 0.00 0.00 82 1023.7
20260509113108 6 247 1.6 6.4 0.00 0.00 0.00 81 1023.7
20260509111532 6 236 3.2 9.7 0.00 0.00 0.00 80 1023.8
20260509104607 7 253 1.6 6.4 0.00 0.00 0.00 78 1023.6
20260509103030 7 258 1.6 6.4 0.00 0.00 0.00 77 1023.6
20260509101645 8 256 1.6 4.8 0.00 0.00 0.00 75 1023.8
20260509100029 8 239 1.6 4.8 0.00 0.00 0.00 73 1023.8
20260509094529 10 272 1.6 6.4 0.00 0.00 0.00 69 1023.8
20260509093032 11 344 1.6 8.0 0.00 0.00 0.00 69 1023.6
20260509090030 10 313 3.2 8.0 0.00 0.00 0.00 68 1024.0
20260509084530 11 278 1.6 6.4 0.00 0.00 0.00 67 1024.3
20260509083144 11 299 1.6 4.8 0.00 0.00 0.00 67 1024.4
20260509081531 11 166 0.0 4.8 0.00 0.00 0.00 67 1024.4
20260509080107 12 347 0.0 4.8 0.00 0.00 0.00 64 1024.3
20260509074531 12 349 4.8 14.5 0.00 0.00 0.00 63 1024.1
20260509073031 13 355 4.8 12.9 0.00 0.00 0.00 62 1024.0
20260509071532 13 1 3.2 12.9 0.00 0.00 0.00 61 1024.1
20260509070033 13 9 3.2 12.9 0.00 0.00 0.00 61 1024.1
20260509064530 13 22 3.2 12.9 0.00 0.00 0.00 61 1024.1
20260509063029 13 12 1.6 11.3 0.00 0.00 0.00 62 1024.2
20260509061539 13 342 1.6 8.0 0.00 0.00 0.00 61 1024.1
20260509060032 13 338 1.6 8.0 0.00 0.00 0.00 60 1024.2
20260509054606 13 355 1.6 16.1 0.00 0.00 0.00 60 1024.0
20260509053030 13 5 3.2 16.1 0.00 0.00 0.00 60 1023.8
20260509051530 13 359 3.2 11.3 0.00 0.00 0.00 59 1023.8
20260509050031 13 348 4.8 16.1 0.00 0.00 0.00 58 1023.6
20260509044528 13 346 6.4 14.5 0.00 0.00 0.00 58 1023.5
20260509043032 13 347 4.8 11.3 0.00 0.00 0.00 57 1023.4
20260509041537 14 3 4.8 19.3 0.00 0.00 0.00 57 1023.4
20260509040026 14 5 4.8 14.5 0.00 0.00 0.00 57 1023.3
20260509034605 13 21 1.6 9.7 0.00 0.00 0.00 57 1023.3
20260509033032 14 35 0.0 8.0 0.00 0.00 0.00 54 1023.1
20260509031530 15 27 0.0 3.2 0.00 0.00 0.00 51 1022.9
20260509024538 17 15 3.2 17.7 0.00 0.00 0.00 46 1022.2
20260509023031 17 24 3.2 12.9 0.00 0.00 0.00 44 1022.0
20260509021528 18 42 3.2 11.3 0.00 0.00 0.00 42 1021.9
20260509020136 19 57 1.6 8.0 0.00 0.00 0.00 41 1022.0
20260509014531 19 58 1.6 8.0 0.00 0.00 0.00 39 1021.8
20260509013030 19 35 3.2 14.5 0.00 0.00 0.00 39 1021.4
20260509010030 19 38 6.4 25.7 0.00 0.00 0.00 38 1020.8
20260509004532 19 44 6.4 17.7 0.00 0.00 0.00 37 1021.0
20260509003030 20 44 4.8 16.1 0.00 0.00 0.00 35 1021.2
20260509000108 20 59 6.4 16.1 0.00 0.00 0.00 33 1021.2
20260508234529 20 59 4.8 14.5 0.00 0.00 0.00 33 1021.1
20260508233031 20 52 4.8 17.7 0.00 0.00 0.00 34 1021.2
20260508231531 20 50 4.8 16.1 0.00 0.00 0.00 33 1021.2
20260508230029 20 50 4.8 11.3 0.00 0.00 0.00 33 1021.2
20260508224532 21 54 3.2 11.3 0.00 0.00 0.00 33 1021.3